Terminal Aerodrome Forecast
Issued by NWS Quad Cities IA IL

Home | Current Version | Previous Version | Text Only | Print | Product List | Glossary On
Versions: 1 2 3 4 5 6 7 8 9 10 11 12 13 14 15
000
FTUS43 KDVN 011700 RRA
TAFMLI
TAF
KMLI 011744Z 0118/0218 13009KT P6SM SCT040 BKN100
     FM020500 14005KT 3SM BR SCT015 OVC030
     FM021200 16008KT 5SM BR BKN025=

USA.gov is the U.S. government's official web portal to all federal, state and local government web resources and services.